Time,TemperatureF,DewpointF,PressureIn,WindDirection,WindDirectionDegrees,WindSpeedMPH,WindSpeedGustMPH,Humidity,HourlyPrecipIn,Conditions,Clouds,dailyrainin,SoftwareType,DateUTC
2013-03-06 00:00:00,37.5,34.5,29.59,ENE,66,5.8,5.8,89,0.04,,SCT,0.47,VWS V14.01,2013-03-06 05:00:00,
2013-03-06 00:05:00,37.5,34.5,29.59,ENE,66,5.8,5.8,89,0.04,,SCT,0.00,VWS V14.01,2013-03-06 05:05:00,
2013-03-06 00:10:00,37.3,34.6,29.59,ENE,66,5.8,5.8,90,0.04,,SCT,0.00,VWS V14.01,2013-03-06 05:10:00,
2013-03-06 00:15:00,37.1,34.5,29.59,ENE,66,5.8,5.8,90,0.04,,SCT,0.00,VWS V14.01,2013-03-06 05:15:00,
2013-03-06 00:20:00,37.1,34.5,29.59,ENE,66,5.8,5.8,90,0.00,,SCT,0.00,VWS V14.01,2013-03-06 05:20:00,
2013-03-06 00:25:00,36.9,34.3,29.59,ENE,66,5.8,5.8,90,0.00,,SCT,0.00,VWS V14.01,2013-03-06 05:25:00,
2013-03-06 00:30:00,36.9,34.3,29.59,ENE,66,5.8,5.8,90,0.00,,SCT,0.00,VWS V14.01,2013-03-06 05:30:00,
2013-03-06 00:35:00,36.8,34.1,29.59,ENE,66,5.8,5.8,90,0.00,,SCT,0.00,VWS V14.01,2013-03-06 05:35:00,
2013-03-06 00:40:00,36.8,34.1,29.59,ENE,66,5.8,5.8,90,0.00,,SCT,0.00,VWS V14.01,2013-03-06 05:40:00,
2013-03-06 00:45:00,36.6,33.9,29.56,ENE,66,5.8,5.8,90,0.00,,SCT,0.00,VWS V14.01,2013-03-06 05:45:00,
2013-03-06 00:50:00,36.6,33.9,29.56,ENE,66,5.8,5.8,90,0.00,,SCT,0.00,VWS V14.01,2013-03-06 05:50:00,
2013-03-06 00:55:00,36.6,33.9,29.56,ENE,66,5.8,5.8,90,0.04,,SCT,0.04,VWS V14.01,2013-03-06 05:55:00,
2013-03-06 01:00:00,36.6,33.9,29.56,ENE,66,5.8,5.8,90,0.04,,SCT,0.04,VWS V14.01,2013-03-06 06:00:00,
2013-03-06 01:05:00,36.6,33.9,29.56,ENE,66,5.8,5.8,90,0.04,,SCT,0.04,VWS V14.01,2013-03-06 06:05:00,
2013-03-06 01:10:00,36.8,34.4,29.56,ENE,66,5.8,5.8,91,0.04,,SCT,0.04,VWS V14.01,2013-03-06 06:10:00,
2013-03-06 01:15:00,36.8,34.4,29.59,ENE,66,5.8,5.8,91,0.04,,SCT,0.04,VWS V14.01,2013-03-06 06:15:00,
2013-03-06 01:20:00,36.9,34.6,29.59,ENE,66,5.8,5.8,91,0.04,,SCT,0.04,VWS V14.01,2013-03-06 06:20:00,
2013-03-06 01:25:00,36.9,34.6,29.59,ENE,66,5.8,5.8,91,0.04,,SCT,0.04,VWS V14.01,2013-03-06 06:25:00,
2013-03-06 01:30:00,36.9,34.6,29.59,ENE,66,5.8,5.8,91,0.08,,SCT,0.08,VWS V14.01,2013-03-06 06:30:00,
2013-03-06 01:35:00,36.9,34.6,29.59,ENE,66,5.8,5.8,91,0.08,,SCT,0.08,VWS V14.01,2013-03-06 06:35:00,
2013-03-06 01:40:00,36.8,34.1,29.59,ENE,66,5.8,5.8,90,0.08,,SCT,0.08,VWS V14.01,2013-03-06 06:40:00,
2013-03-06 01:45:00,36.8,34.1,29.59,ENE,66,5.8,5.8,90,0.08,,SCT,0.08,VWS V14.01,2013-03-06 06:45:00,
2013-03-06 01:50:00,36.9,34.6,29.59,ENE,66,5.8,5.8,91,0.08,,SCT,0.08,VWS V14.01,2013-03-06 06:50:00,
2013-03-06 01:55:00,36.8,34.4,29.59,ENE,66,5.8,5.8,91,0.08,,SCT,0.12,VWS V14.01,2013-03-06 06:55:00,
2013-03-06 02:00:00,36.6,33.9,29.59,ENE,66,5.8,5.8,90,0.08,,SCT,0.12,VWS V14.01,2013-03-06 07:00:00,
2013-03-06 02:05:00,36.6,33.9,29.59,ENE,66,5.8,5.8,90,0.08,,SCT,0.12,VWS V14.01,2013-03-06 07:05:00,
2013-03-06 02:10:00,36.4,33.8,29.59,ENE,66,5.8,5.8,90,0.08,,SCT,0.12,VWS V14.01,2013-03-06 07:10:00,
2013-03-06 02:15:00,36.4,33.8,29.59,ENE,66,5.8,5.8,90,0.08,,SCT,0.12,VWS V14.01,2013-03-06 07:15:00,
2013-03-06 02:20:00,36.4,33.8,29.59,ENE,66,5.8,5.8,90,0.08,,SCT,0.12,VWS V14.01,2013-03-06 07:20:00,
2013-03-06 02:25:00,36.2,33.6,29.59,ENE,66,5.8,5.8,90,0.08,,SCT,0.12,VWS V14.01,2013-03-06 07:25:00,
2013-03-06 02:30:00,36.2,33.6,29.59,ENE,66,5.8,5.8,90,0.04,,SCT,0.12,VWS V14.01,2013-03-06 07:30:00,
2013-03-06 02:35:00,36.2,33.6,29.59,ENE,66,5.8,5.8,90,0.04,,SCT,0.47,VWS V14.01,2013-03-06 07:35:00,
2013-03-06 02:40:00,36.0,33.7,29.59,ENE,66,5.8,5.8,91,0.04,,SCT,0.12,VWS V14.01,2013-03-06 07:40:00,
2013-03-06 02:45:00,36.0,33.4,29.59,ENE,66,5.8,5.8,90,0.04,,SCT,0.12,VWS V14.01,2013-03-06 07:45:00,
2013-03-06 02:50:00,36.0,33.4,29.59,ENE,66,5.8,5.8,90,0.04,,SCT,0.12,VWS V14.01,2013-03-06 07:50:00,
2013-03-06 02:54:00,35.9,33.2,29.59,ENE,66,5.8,5.8,90,0.04,,SCT,0.12,VWS V14.01,2013-03-06 07:54:00,
2013-03-06 02:59:00,35.7,33.0,29.59,ENE,66,5.8,5.8,90,0.00,,SCT,0.12,VWS V14.01,2013-03-06 07:59:00,
2013-03-06 03:04:00,35.5,33.1,29.59,ENE,66,5.8,5.8,91,0.00,,SCT,0.12,VWS V14.01,2013-03-06 08:04:00,
2013-03-06 03:09:00,35.3,32.7,29.59,ENE,66,5.8,5.8,90,0.00,,SCT,0.12,VWS V14.01,2013-03-06 08:09:00,
2013-03-06 03:14:00,35.1,32.5,29.59,ENE,66,5.8,5.8,90,0.00,,SCT,0.12,VWS V14.01,2013-03-06 08:14:00,
2013-03-06 03:19:00,35.1,32.8,29.59,ENE,66,5.8,5.8,91,0.00,,SCT,0.12,VWS V14.01,2013-03-06 08:19:00,
2013-03-06 03:24:00,35.1,32.8,29.59,ENE,66,5.8,5.8,91,0.00,,SCT,0.12,VWS V14.01,2013-03-06 08:24:00,
2013-03-06 03:29:00,34.8,32.2,29.59,ENE,66,5.8,5.8,90,0.08,,SCT,0.20,VWS V14.01,2013-03-06 08:29:00,
2013-03-06 03:34:00,34.8,32.2,29.59,ENE,66,5.8,5.8,90,0.08,,SCT,0.20,VWS V14.01,2013-03-06 08:34:00,
2013-03-06 03:39:00,34.8,32.2,29.59,ENE,66,5.8,5.8,90,0.08,,SCT,0.20,VWS V14.01,2013-03-06 08:39:00,
2013-03-06 03:44:00,34.6,32.0,29.59,ENE,66,5.8,5.8,90,0.08,,SCT,0.20,VWS V14.01,2013-03-06 08:44:00,
2013-03-06 03:49:00,34.4,31.8,29.59,ENE,66,5.8,5.8,90,0.08,,SCT,0.20,VWS V14.01,2013-03-06 08:49:00,
2013-03-06 03:54:00,34.4,31.8,29.59,ENE,66,5.8,5.8,90,0.08,,SCT,0.20,VWS V14.01,2013-03-06 08:54:00,
2013-03-06 03:59:00,34.4,31.8,29.59,ENE,66,5.8,5.8,90,0.08,,SCT,0.20,VWS V14.01,2013-03-06 08:59:00,
2013-03-06 04:04:00,34.4,32.1,29.59,ENE,66,5.8,5.8,91,0.08,,SCT,0.20,VWS V14.01,2013-03-06 09:04:00,
2013-03-06 04:09:00,34.2,31.9,29.59,ENE,66,5.8,5.8,91,0.08,,SCT,0.20,VWS V14.01,2013-03-06 09:09:00,
2013-03-06 04:14:00,34.4,32.1,29.59,ENE,66,5.8,5.8,91,0.08,,SCT,0.20,VWS V14.01,2013-03-06 09:14:00,
2013-03-06 04:19:00,34.4,32.1,29.59,ENE,66,5.8,5.8,91,0.08,,SCT,0.20,VWS V14.01,2013-03-06 09:19:00,
2013-03-06 04:24:00,34.4,32.1,29.59,ENE,66,5.8,5.8,91,0.08,,SCT,0.20,VWS V14.01,2013-03-06 09:24:00,
2013-03-06 04:29:00,34.4,32.1,29.59,ENE,66,5.8,5.8,91,0.00,,SCT,0.20,VWS V14.01,2013-03-06 09:29:00,
2013-03-06 04:34:00,34.6,32.2,29.59,ENE,66,5.8,5.8,91,0.00,,SCT,0.20,VWS V14.01,2013-03-06 09:34:00,
2013-03-06 04:39:00,34.6,32.2,29.59,ENE,66,5.8,5.8,91,0.00,,SCT,0.20,VWS V14.01,2013-03-06 09:39:00,
2013-03-06 04:44:00,34.8,32.4,29.62,ENE,66,5.8,5.8,91,0.00,,SCT,0.20,VWS V14.01,2013-03-06 09:44:00,
2013-03-06 04:49:00,34.6,32.2,29.62,ENE,66,5.8,5.8,91,0.00,,SCT,0.20,VWS V14.01,2013-03-06 09:49:00,
2013-03-06 04:54:00,34.8,32.4,29.62,ENE,66,5.8,5.8,91,0.00,,SCT,0.20,VWS V14.01,2013-03-06 09:54:00,
2013-03-06 04:59:00,34.8,32.4,29.59,ENE,66,5.8,5.8,91,0.00,,SCT,0.20,VWS V14.01,2013-03-06 09:59:00,
2013-03-06 05:04:00,34.6,32.2,29.59,ENE,66,5.8,5.8,91,0.00,,SCT,0.20,VWS V14.01,2013-03-06 10:04:00,
2013-03-06 05:09:00,34.6,32.2,29.59,ENE,66,5.8,5.8,91,0.00,,SCT,0.20,VWS V14.01,2013-03-06 10:09:00,
2013-03-06 05:14:00,34.6,32.2,29.62,ENE,66,5.8,5.8,91,0.00,,SCT,0.20,VWS V14.01,2013-03-06 10:14:00,
2013-03-06 05:19:00,34.6,32.2,29.62,ENE,66,5.8,5.8,91,0.00,,SCT,0.20,VWS V14.01,2013-03-06 10:19:00,
2013-03-06 05:24:00,34.8,32.4,29.62,ENE,66,5.8,5.8,91,0.00,,SCT,0.20,VWS V14.01,2013-03-06 10:24:00,
2013-03-06 05:29:00,34.8,32.4,29.62,ENE,66,5.8,5.8,91,0.00,,SCT,0.20,VWS V14.01,2013-03-06 10:29:00,
2013-03-06 05:34:00,34.6,32.2,29.62,ENE,66,5.8,5.8,91,0.00,,SCT,0.20,VWS V14.01,2013-03-06 10:34:00,
2013-03-06 05:39:00,34.6,32.2,29.62,ENE,66,5.8,5.8,91,0.00,,SCT,0.20,VWS V14.01,2013-03-06 10:39:00,
2013-03-06 05:44:00,34.4,32.1,29.62,ENE,66,5.8,5.8,91,0.00,,SCT,0.20,VWS V14.01,2013-03-06 10:44:00,
2013-03-06 05:49:00,34.6,32.2,29.62,ENE,66,5.8,5.8,91,0.00,,SCT,0.20,VWS V14.01,2013-03-06 10:49:00,
2013-03-06 05:54:00,34.6,32.2,29.62,ENE,66,5.8,5.8,91,0.00,,SCT,0.20,VWS V14.01,2013-03-06 10:54:00,
2013-03-06 05:59:00,34.4,32.1,29.62,ENE,66,5.8,5.8,91,0.00,,SCT,0.20,VWS V14.01,2013-03-06 10:59:00,
2013-03-06 06:04:00,34.4,32.1,29.62,ENE,66,5.8,5.8,91,0.00,,SCT,0.20,VWS V14.01,2013-03-06 11:04:00,
2013-03-06 06:09:00,34.4,32.1,29.62,ENE,66,5.8,5.8,91,0.00,,SCT,0.20,VWS V14.01,2013-03-06 11:09:00,
2013-03-06 06:14:00,34.4,32.1,29.62,ENE,66,5.8,5.8,91,0.00,,SCT,0.20,VWS V14.01,2013-03-06 11:14:00,
2013-03-06 06:19:00,34.4,32.1,29.62,ENE,66,5.8,5.8,91,0.00,,SCT,0.20,VWS V14.01,2013-03-06 11:19:00,
2013-03-06 06:24:00,34.1,31.7,29.62,ENE,66,5.8,5.8,91,0.00,,SCT,0.20,VWS V14.01,2013-03-06 11:24:00,
2013-03-06 06:29:00,33.9,31.5,29.62,ENE,66,5.8,5.8,91,0.00,,SCT,0.20,VWS V14.01,2013-03-06 11:29:00,
2013-03-06 06:34:00,33.9,31.5,29.62,ENE,66,5.8,5.8,91,0.00,,SCT,0.20,VWS V14.01,2013-03-06 11:34:00,
2013-03-06 06:39:00,33.9,31.5,29.62,ENE,66,5.8,5.8,91,0.00,,SCT,0.20,VWS V14.01,2013-03-06 11:39:00,
2013-03-06 06:44:00,33.9,31.5,29.62,ENE,66,5.8,5.8,91,0.00,,SCT,0.20,VWS V14.01,2013-03-06 11:44:00,
2013-03-06 06:49:00,33.9,31.5,29.62,West,269,2.7,5.8,91,0.00,,SCT,0.20,VWS V14.01,2013-03-06 11:49:00,
2013-03-06 06:54:00,33.9,31.5,29.62,WNW,282,0.0,0.0,91,0.00,,SCT,0.20,VWS V14.01,2013-03-06 11:54:00,
2013-03-06 06:59:00,33.9,31.5,29.62,WNW,282,0.0,0.0,91,0.00,,SCT,0.20,VWS V14.01,2013-03-06 11:59:00,
2013-03-06 07:04:00,33.9,31.5,29.62,WNW,282,0.0,0.0,91,0.00,,SCT,0.20,VWS V14.01,2013-03-06 12:04:00,
2013-03-06 07:09:00,33.9,31.5,29.62,WNW,295,0.0,0.0,91,0.00,,SCT,0.20,VWS V14.01,2013-03-06 12:09:00,
2013-03-06 07:14:00,34.1,31.7,29.62,WNW,295,0.0,0.0,91,0.00,,SCT,0.20,VWS V14.01,2013-03-06 12:14:00,
2013-03-06 07:19:00,34.2,31.9,29.62,WSW,250,0.0,4.0,91,0.00,,SCT,0.47,VWS V14.01,2013-03-06 12:19:00,
2013-03-06 07:24:00,34.4,32.1,29.65,WSW,253,0.0,3.1,91,0.00,,SCT,0.20,VWS V14.01,2013-03-06 12:24:00,
2013-03-06 07:29:00,34.6,32.2,29.65,West,267,4.0,4.0,91,0.00,,SCT,0.20,VWS V14.01,2013-03-06 12:29:00,
2013-03-06 07:34:00,34.6,32.2,29.65,West,263,3.1,4.0,91,0.00,,SCT,0.20,VWS V14.01,2013-03-06 12:34:00,
2013-03-06 07:39:00,34.8,32.4,29.65,West,281,2.7,4.5,91,0.00,,SCT,0.20,VWS V14.01,2013-03-06 12:39:00,
2013-03-06 07:44:00,35.0,32.6,29.65,West,280,2.7,3.1,91,0.00,,SCT,0.20,VWS V14.01,2013-03-06 12:44:00,
2013-03-06 07:49:00,35.0,32.6,29.65,WNW,284,2.7,4.9,91,0.00,,SCT,0.20,VWS V14.01,2013-03-06 12:49:00,
2013-03-06 07:54:00,35.0,32.6,29.65,WNW,288,0.0,4.9,91,0.00,,SCT,0.20,VWS V14.01,2013-03-06 12:54:00,
2013-03-06 07:59:00,35.0,32.6,29.65,WSW,254,3.1,3.6,91,0.00,,SCT,0.20,VWS V14.01,2013-03-06 12:59:00,
2013-03-06 08:04:00,35.3,33.0,29.65,West,273,3.1,3.6,91,0.00,,SCT,0.20,VWS V14.01,2013-03-06 13:04:00,
2013-03-06 08:09:00,35.9,33.5,29.65,West,276,3.6,4.5,91,0.00,,SCT,0.20,VWS V14.01,2013-03-06 13:09:00,
2013-03-06 08:14:00,36.2,33.8,29.67,WNW,294,0.0,4.9,91,0.00,,SCT,0.20,VWS V14.01,2013-03-06 13:14:00,
2013-03-06 08:19:00,36.6,34.2,29.67,West,269,0.0,3.1,91,0.00,,SCT,0.20,VWS V14.01,2013-03-06 13:19:00,
2013-03-06 08:24:00,37.1,34.7,29.67,West,278,3.6,3.6,91,0.00,,SCT,0.20,VWS V14.01,2013-03-06 13:24:00,
2013-03-06 08:29:00,37.5,35.1,29.67,West,262,2.7,3.1,91,0.00,,SCT,0.20,VWS V14.01,2013-03-06 13:29:00,
2013-03-06 08:34:00,37.8,35.5,29.67,WSW,245,5.4,5.4,91,0.00,,SCT,0.20,VWS V14.01,2013-03-06 13:34:00,
2013-03-06 08:39:00,37.8,35.5,29.67,WSW,253,4.0,4.0,91,0.00,,SCT,0.20,VWS V14.01,2013-03-06 13:39:00,
2013-03-06 08:44:00,37.7,34.7,29.67,WSW,253,4.0,4.0,89,0.00,,SCT,0.20,VWS V14.01,2013-03-06 13:44:00,
2013-03-06 08:49:00,37.8,33.7,29.67,WSW,253,4.0,4.0,85,0.00,,SCT,0.20,VWS V14.01,2013-03-06 13:49:00,
2013-03-06 08:54:00,38.2,33.8,29.67,WSW,253,4.0,4.0,84,0.00,,SCT,0.20,VWS V14.01,2013-03-06 13:54:00,
2013-03-06 08:59:00,39.1,34.1,29.67,WSW,253,4.0,4.0,82,0.00,,SCT,0.20,VWS V14.01,2013-03-06 13:59:00,
2013-03-06 09:04:00,39.6,34.3,29.67,West,275,4.0,5.4,81,0.00,,SCT,0.20,VWS V14.01,2013-03-06 14:04:00,
2013-03-06 09:09:00,39.6,33.7,29.67,NNW,327,3.1,4.9,79,0.00,,SCT,0.20,VWS V14.01,2013-03-06 14:09:00,
2013-03-06 09:14:00,40.4,31.7,29.67,West,264,5.8,5.8,71,0.00,,SCT,0.20,VWS V14.01,2013-03-06 14:14:00,
2013-03-06 09:19:00,41.1,31.7,29.67,West,277,4.0,6.3,69,0.00,,SCT,0.20,VWS V14.01,2013-03-06 14:19:00,
2013-03-06 09:24:00,41.4,30.2,29.67,NW,314,3.6,7.8,64,0.00,,SCT,0.20,VWS V14.01,2013-03-06 14:24:00,
2013-03-06 09:29:00,41.8,29.4,29.67,NW,316,4.0,4.5,61,0.00,,SCT,0.20,VWS V14.01,2013-03-06 14:29:00,
2013-03-06 09:34:00,41.8,27.7,29.67,West,266,5.4,5.4,57,0.00,,SCT,0.20,VWS V14.01,2013-03-06 14:34:00,
2013-03-06 09:39:00,41.8,27.7,29.67,West,269,0.0,4.9,57,0.00,,SCT,0.20,VWS V14.01,2013-03-06 14:39:00,
2013-03-06 09:44:00,41.8,26.8,29.67,WNW,289,3.1,4.9,55,0.00,,SCT,0.20,VWS V14.01,2013-03-06 14:44:00,
2013-03-06 09:49:00,41.8,24.5,29.67,SSW,212,5.8,7.8,50,0.00,,SCT,0.20,VWS V14.01,2013-03-06 14:49:00,
2013-03-06 09:54:00,41.8,22.0,29.67,West,280,3.1,3.6,45,0.00,,SCT,0.20,VWS V14.01,2013-03-06 14:54:00,
2013-03-06 09:59:00,41.8,22.5,29.67,WSW,254,4.5,4.9,46,0.00,,SCT,0.20,VWS V14.01,2013-03-06 14:59:00,
2013-03-06 10:04:00,41.8,22.0,29.67,SW,232,5.4,5.4,45,0.00,,SCT,0.20,VWS V14.01,2013-03-06 15:04:00,
2013-03-06 10:09:00,41.8,21.5,29.67,West,270,5.4,6.3,44,0.00,,SCT,0.20,VWS V14.01,2013-03-06 15:09:00,
2013-03-06 10:14:00,41.8,21.5,29.67,WNW,298,7.8,7.8,44,0.00,,SCT,0.20,VWS V14.01,2013-03-06 15:14:00,
2013-03-06 10:19:00,41.8,20.4,29.67,WNW,295,0.0,4.9,42,0.00,,SCT,0.20,VWS V14.01,2013-03-06 15:19:00,
2013-03-06 10:24:00,41.8,19.3,29.67,NW,304,4.9,4.9,40,0.00,,SCT,0.20,VWS V14.01,2013-03-06 15:24:00,
2013-03-06 10:29:00,41.8,20.4,29.67,West,267,5.8,6.9,42,0.00,,SCT,0.20,VWS V14.01,2013-03-06 15:29:00,
2013-03-06 10:34:00,41.8,19.3,29.67,NW,319,5.4,6.3,40,0.00,,SCT,0.20,VWS V14.01,2013-03-06 15:34:00,
2013-03-06 10:39:00,41.8,18.7,29.67,WSW,237,6.7,6.7,39,0.00,,SCT,0.20,VWS V14.01,2013-03-06 15:39:00,
2013-03-06 10:44:00,41.8,19.8,29.67,NNW,334,0.0,3.1,41,0.00,,SCT,0.20,VWS V14.01,2013-03-06 15:44:00,
2013-03-06 10:49:00,41.8,18.7,29.67,SW,235,16.3,16.3,39,0.00,,SCT,0.20,VWS V14.01,2013-03-06 15:49:00,
2013-03-06 10:54:00,41.8,18.1,29.67,West,268,3.6,6.3,38,0.00,,SCT,0.20,VWS V14.01,2013-03-06 15:54:00,
2013-03-06 10:59:00,41.8,18.7,29.67,WSW,257,5.4,6.9,39,0.00,,SCT,0.20,VWS V14.01,2013-03-06 15:59:00,
2013-03-06 11:04:00,41.8,16.8,29.67,WSW,239,7.4,8.3,36,0.00,,SCT,0.20,VWS V14.01,2013-03-06 16:04:00,
2013-03-06 11:09:00,41.8,17.5,29.67,WSW,245,8.3,9.2,37,0.00,,SCT,0.20,VWS V14.01,2013-03-06 16:09:00,
2013-03-06 11:14:00,41.8,16.8,29.67,SW,226,4.0,6.9,36,0.00,,SCT,0.20,VWS V14.01,2013-03-06 16:14:00,
2013-03-06 11:19:00,41.8,16.2,29.67,West,272,6.9,6.9,35,0.00,,SCT,0.20,VWS V14.01,2013-03-06 16:19:00,
2013-03-06 11:24:00,41.8,16.2,29.67,West,269,5.4,5.4,35,0.00,,SCT,0.20,VWS V14.01,2013-03-06 16:24:00,
2013-03-06 11:27:00,47.0,21.5,29.70,West,270,5.8,5.8,36,0.00,,SCT,0.20,VWS V14.01,2013-03-06 16:27:00,
2013-03-06 11:28:00,47.0,21.5,29.70,NW,317,4.5,5.8,36,0.00,,SCT,0.20,VWS V14.01,2013-03-06 16:28:00,
2013-03-06 11:29:00,47.0,21.5,29.70,WSW,248,6.3,6.3,36,0.00,,SCT,0.20,VWS V14.01,2013-03-06 16:29:00,
2013-03-06 11:30:00,47.0,20.8,29.70,WSW,256,6.3,7.8,35,0.00,,SCT,0.20,VWS V14.01,2013-03-06 16:30:00,
2013-03-06 11:31:00,46.8,20.6,29.70,NW,308,5.4,6.9,35,0.00,,SCT,0.20,VWS V14.01,2013-03-06 16:31:00,
2013-03-06 11:32:00,46.7,20.5,29.70,West,268,5.8,6.9,35,0.00,,SCT,0.20,VWS V14.01,2013-03-06 16:32:00,
2013-03-06 11:33:00,46.8,20.6,29.70,NNW,334,2.7,6.7,35,0.00,,SCT,0.20,VWS V14.01,2013-03-06 16:33:00,
2013-03-06 11:34:00,46.8,20.6,29.70,NE,41,4.0,4.0,35,0.00,,SCT,0.20,VWS V14.01,2013-03-06 16:34:00,
2013-03-06 11:35:00,46.8,20.6,29.70,NW,308,4.9,6.7,35,0.00,,SCT,0.20,VWS V14.01,2013-03-06 16:35:00,
2013-03-06 11:36:00,46.8,20.6,29.70,West,263,5.4,6.7,35,0.00,,SCT,0.20,VWS V14.01,2013-03-06 16:36:00,
2013-03-06 11:37:00,46.8,20.6,29.70,NNW,346,6.3,8.7,35,0.00,,SCT,0.20,VWS V14.01,2013-03-06 16:37:00,
2013-03-06 11:38:00,46.7,20.5,29.70,West,267,6.7,7.8,35,0.00,,SCT,0.20,VWS V14.01,2013-03-06 16:38:00,
2013-03-06 11:39:00,46.5,20.3,29.70,West,271,5.4,6.7,35,0.00,,SCT,0.20,VWS V14.01,2013-03-06 16:39:00,
2013-03-06 11:40:00,46.3,20.2,29.70,West,274,5.4,8.3,35,0.00,,SCT,0.20,VWS V14.01,2013-03-06 16:40:00,
2013-03-06 11:41:00,46.1,20.7,29.70,WNW,293,6.7,7.8,36,0.00,,SCT,0.20,VWS V14.01,2013-03-06 16:41:00,
2013-03-06 11:42:00,46.1,20.7,29.73,South,179,3.1,6.7,36,0.00,,SCT,0.20,VWS V14.01,2013-03-06 16:42:00,
2013-03-06 11:43:00,45.9,20.5,29.73,WSW,242,4.9,4.9,36,0.00,,SCT,0.20,VWS V14.01,2013-03-06 16:43:00,
2013-03-06 11:44:00,45.9,20.5,29.73,NW,324,5.4,6.7,36,0.00,,SCT,0.20,VWS V14.01,2013-03-06 16:44:00,
2013-03-06 11:45:00,45.8,19.7,29.73,WNW,302,4.9,8.7,35,0.00,,SCT,0.20,VWS V14.01,2013-03-06 16:45:00,
2013-03-06 11:46:00,45.8,20.3,29.73,West,279,11.6,15.4,36,0.00,,SCT,0.20,VWS V14.01,2013-03-06 16:46:00,
2013-03-06 11:47:00,45.6,20.2,29.73,WNW,292,2.7,11.6,36,0.00,,SCT,0.20,VWS V14.01,2013-03-06 16:47:00,
2013-03-06 11:48:00,45.6,20.2,29.73,SW,236,4.0,6.7,36,0.00,,SCT,0.20,VWS V14.01,2013-03-06 16:48:00,
2013-03-06 11:49:00,45.6,20.2,29.73,WSW,249,7.8,7.8,36,0.00,,SCT,0.20,VWS V14.01,2013-03-06 16:49:00,
2013-03-06 11:50:00,45.6,20.2,29.73,ESE,110,3.6,5.4,36,0.00,,SCT,0.20,VWS V14.01,2013-03-06 16:50:00,
2013-03-06 11:51:00,45.6,20.2,29.73,NNW,337,2.7,5.4,36,0.00,,SCT,0.20,VWS V14.01,2013-03-06 16:51:00,
2013-03-06 11:52:00,45.4,20.0,29.73,WSW,239,5.8,5.8,36,0.00,,SCT,0.20,VWS V14.01,2013-03-06 16:52:00,
2013-03-06 11:53:00,45.6,20.2,29.73,West,276,4.0,7.4,36,0.00,,SCT,0.20,VWS V14.01,2013-03-06 16:53:00,
2013-03-06 11:54:00,45.6,20.2,29.73,NNW,347,4.5,6.7,36,0.00,,SCT,0.20,VWS V14.01,2013-03-06 16:54:00,
2013-03-06 11:55:00,45.6,20.2,29.73,WSW,257,5.4,10.5,36,0.00,,SCT,0.20,VWS V14.01,2013-03-06 16:55:00,
2013-03-06 11:56:00,45.6,20.2,29.73,WNW,302,5.8,6.9,36,0.00,,SCT,0.20,VWS V14.01,2013-03-06 16:56:00,
2013-03-06 11:57:00,45.6,20.2,29.73,West,269,6.3,8.3,36,0.00,,SCT,0.20,VWS V14.01,2013-03-06 16:57:00,
2013-03-06 11:58:00,45.6,20.2,29.73,East,93,5.8,6.3,36,0.00,,SCT,0.20,VWS V14.01,2013-03-06 16:58:00,
2013-03-06 11:59:00,45.6,20.2,29.73,WSW,246,3.6,5.8,36,0.00,,SCT,0.20,VWS V14.01,2013-03-06 16:59:00,
2013-03-06 12:00:00,45.6,20.2,29.73,West,272,4.5,6.3,36,0.00,,SCT,0.20,VWS V14.01,2013-03-06 17:00:00,
2013-03-06 12:01:00,45.8,20.3,29.73,NW,314,4.5,8.7,36,0.00,,SCT,0.20,VWS V14.01,2013-03-06 17:01:00,
2013-03-06 12:02:00,45.8,20.3,29.73,WNW,283,4.0,4.9,36,0.00,,SCT,0.20,VWS V14.01,2013-03-06 17:02:00,
2013-03-06 12:03:00,45.8,20.3,29.73,WSW,238,4.0,4.0,36,0.00,,SCT,0.20,VWS V14.01,2013-03-06 17:03:00,
2013-03-06 12:04:00,45.9,20.5,29.73,WSW,247,2.7,4.0,36,0.00,,SCT,0.20,VWS V14.01,2013-03-06 17:04:00,
2013-03-06 12:05:00,46.3,20.8,29.73,WNW,287,4.5,4.9,36,0.00,,SCT,0.20,VWS V14.01,2013-03-06 17:05:00,
2013-03-06 12:06:00,46.5,20.3,29.73,NW,311,4.0,6.7,35,0.00,,SCT,0.20,VWS V14.01,2013-03-06 17:06:00,
2013-03-06 12:07:00,46.7,20.5,29.73,ESE,118,5.8,5.8,35,0.00,,SCT,0.20,VWS V14.01,2013-03-06 17:07:00,
2013-03-06 12:08:00,46.8,20.6,29.73,East,83,9.2,9.2,35,0.00,,SCT,0.20,VWS V14.01,2013-03-06 17:08:00,
2013-03-06 12:09:00,47.0,21.5,29.73,West,266,4.9,9.2,36,0.00,,SCT,0.20,VWS V14.01,2013-03-06 17:09:00,
2013-03-06 12:10:00,47.2,21.0,29.73,WSW,253,8.3,8.7,35,0.00,,SCT,0.20,VWS V14.01,2013-03-06 17:10:00,
2013-03-06 12:11:00,47.6,21.3,29.73,ENE,69,6.7,8.3,35,0.00,,SCT,0.20,VWS V14.01,2013-03-06 17:11:00,
2013-03-06 12:12:00,47.9,21.6,29.73,WNW,301,6.9,6.9,35,0.00,,SCT,0.20,VWS V14.01,2013-03-06 17:12:00,
2013-03-06 12:13:00,48.3,21.9,29.73,SSE,151,4.9,6.9,35,0.00,,SCT,0.20,VWS V14.01,2013-03-06 17:13:00,
2013-03-06 12:14:00,48.5,22.1,29.73,WSW,241,6.3,6.9,35,0.00,,SCT,0.20,VWS V14.01,2013-03-06 17:14:00,
2013-03-06 12:15:00,49.0,22.6,29.73,WSW,253,4.0,6.7,35,0.00,,SCT,0.20,VWS V14.01,2013-03-06 17:15:00,
2013-03-06 12:16:00,49.2,22.7,29.73,NW,324,6.3,8.7,35,0.00,,SCT,0.20,VWS V14.01,2013-03-06 17:16:00,
2013-03-06 12:17:00,49.2,22.0,29.73,SW,236,8.7,8.7,34,0.00,,SCT,0.20,VWS V14.01,2013-03-06 17:17:00,
2013-03-06 12:18:00,49.0,22.6,29.73,WNW,296,6.7,10.5,35,0.00,,SCT,0.20,VWS V14.01,2013-03-06 17:18:00,
2013-03-06 12:19:00,49.0,22.6,29.73,WSW,255,7.8,8.7,35,0.00,,SCT,0.20,VWS V14.01,2013-03-06 17:19:00,
2013-03-06 12:20:00,49.0,22.6,29.73,West,261,6.9,7.4,35,0.00,,SCT,0.20,VWS V14.01,2013-03-06 17:20:00,
2013-03-06 12:21:00,49.2,22.7,29.73,West,279,4.5,8.7,35,0.00,,SCT,0.20,VWS V14.01,2013-03-06 17:21:00,
2013-03-06 12:22:00,49.2,22.7,29.73,NNW,331,8.7,13.9,35,0.00,,SCT,0.20,VWS V14.01,2013-03-06 17:22:00,
2013-03-06 12:23:00,49.4,22.2,29.73,North,351,4.9,8.7,34,0.00,,SCT,0.20,VWS V14.01,2013-03-06 17:23:00,
2013-03-06 12:24:00,49.4,22.2,29.73,NW,317,5.8,6.3,34,0.00,,SCT,0.20,VWS V14.01,2013-03-06 17:24:00,
2013-03-06 12:25:00,49.4,22.2,29.73,NNW,340,5.4,6.7,34,0.00,,SCT,0.20,VWS V14.01,2013-03-06 17:25:00,
2013-03-06 12:26:00,49.2,22.0,29.73,NNW,336,4.0,8.7,34,0.00,,SCT,0.20,VWS V14.01,2013-03-06 17:26:00,
2013-03-06 12:27:00,49.2,22.0,29.73,WSW,255,8.3,9.6,34,0.00,,SCT,0.20,VWS V14.01,2013-03-06 17:27:00,
2013-03-06 12:28:00,49.0,21.9,29.73,NW,322,6.3,10.5,34,0.00,,SCT,0.20,VWS V14.01,2013-03-06 17:28:00,
2013-03-06 12:29:00,49.0,21.9,29.73,SW,219,6.9,6.9,34,0.00,,SCT,0.20,VWS V14.01,2013-03-06 17:29:00,
2013-03-06 12:30:00,48.5,21.4,29.73,NW,318,4.0,8.3,34,0.00,,SCT,0.20,VWS V14.01,2013-03-06 17:30:00,
2013-03-06 12:31:00,48.3,21.2,29.73,WNW,288,4.5,5.4,34,0.00,,SCT,0.20,VWS V14.01,2013-03-06 17:31:00,
2013-03-06 12:32:00,48.3,21.2,29.73,West,269,4.9,5.8,34,0.00,,SCT,0.20,VWS V14.01,2013-03-06 17:32:00,
2013-03-06 12:33:00,48.5,22.1,29.73,WNW,288,6.3,6.7,35,0.00,,SCT,0.20,VWS V14.01,2013-03-06 17:33:00,
2013-03-06 12:34:00,48.5,22.1,29.73,NE,36,5.4,6.3,35,0.00,,SCT,0.20,VWS V14.01,2013-03-06 17:34:00,
2013-03-06 12:35:00,48.6,21.5,29.73,West,262,6.9,11.2,34,0.00,,SCT,0.20,VWS V14.01,2013-03-06 17:35:00,
2013-03-06 12:36:00,48.8,21.7,29.73,West,260,3.6,6.9,34,0.00,,SCT,0.20,VWS V14.01,2013-03-06 17:36:00,
2013-03-06 12:37:00,49.0,21.9,29.73,ESE,106,6.9,6.9,34,0.00,,SCT,0.20,VWS V14.01,2013-03-06 17:37:00,
2013-03-06 12:38:00,49.2,22.7,29.73,NNE,25,4.0,6.9,35,0.00,,SCT,0.20,VWS V14.01,2013-03-06 17:38:00,
2013-03-06 12:39:00,49.4,22.9,29.73,WNW,284,3.6,4.0,35,0.00,,SCT,0.20,VWS V14.01,2013-03-06 17:39:00,
2013-03-06 12:40:00,49.4,22.9,29.73,NNW,345,7.4,7.8,35,0.00,,SCT,0.20,VWS V14.01,2013-03-06 17:40:00,
2013-03-06 12:41:00,49.4,22.2,29.73,West,279,5.8,8.3,34,0.00,,SCT,0.20,VWS V14.01,2013-03-06 17:41:00,
2013-03-06 12:42:00,48.8,21.7,29.73,West,267,4.9,9.2,34,0.00,,SCT,0.20,VWS V14.01,2013-03-06 17:42:00,
2013-03-06 12:43:00,48.5,21.4,29.73,NW,319,6.7,6.7,34,0.00,,SCT,0.20,VWS V14.01,2013-03-06 17:43:00,
2013-03-06 12:44:00,48.3,21.2,29.73,West,265,10.5,10.5,34,0.00,,SCT,0.20,VWS V14.01,2013-03-06 17:44:00,
2013-03-06 12:45:00,47.9,21.6,29.73,SW,236,4.9,9.2,35,0.00,,SCT,0.20,VWS V14.01,2013-03-06 17:45:00,
2013-03-06 12:46:00,47.7,21.4,29.73,NW,310,3.1,7.4,35,0.00,,SCT,0.20,VWS V14.01,2013-03-06 17:46:00,
2013-03-06 12:47:00,47.7,21.4,29.73,NW,322,3.1,7.4,35,0.00,,SCT,0.20,VWS V14.01,2013-03-06 17:47:00,
2013-03-06 12:48:00,47.9,21.6,29.73,North,0,9.2,9.2,35,0.00,,SCT,0.20,VWS V14.01,2013-03-06 17:48:00,
2013-03-06 12:49:00,47.9,20.9,29.73,NW,322,4.5,9.2,34,0.00,,SCT,0.20,VWS V14.01,2013-03-06 17:49:00,
2013-03-06 12:50:00,48.1,21.1,29.73,NW,319,5.8,8.3,34,0.00,,SCT,0.20,VWS V14.01,2013-03-06 17:50:00,
2013-03-06 12:51:00,48.3,21.2,29.73,West,273,5.8,7.8,34,0.00,,SCT,0.20,VWS V14.01,2013-03-06 17:51:00,
2013-03-06 12:52:00,48.3,21.2,29.73,WSW,254,8.7,8.7,34,0.00,,SCT,0.20,VWS V14.01,2013-03-06 17:52:00,
2013-03-06 12:53:00,48.3,21.2,29.73,NNW,330,5.8,6.3,34,0.00,,SCT,0.20,VWS V14.01,2013-03-06 17:53:00,
2013-03-06 12:54:00,48.1,21.1,29.73,SE,134,6.3,6.3,34,0.00,,SCT,0.20,VWS V14.01,2013-03-06 17:54:00,
2013-03-06 12:55:00,48.3,21.2,29.73,SW,235,3.6,7.8,34,0.00,,SCT,0.20,VWS V14.01,2013-03-06 17:55:00,
2013-03-06 12:56:00,48.6,21.5,29.73,WNW,292,6.3,6.9,34,0.00,,SCT,0.20,VWS V14.01,2013-03-06 17:56:00,
2013-03-06 12:57:00,49.0,21.9,29.73,WNW,293,12.1,12.1,34,0.00,,SCT,0.20,VWS V14.01,2013-03-06 17:57:00,
2013-03-06 12:58:00,49.5,23.0,29.73,WSW,239,4.5,5.4,35,0.00,,SCT,0.20,VWS V14.01,2013-03-06 17:58:00,
2013-03-06 12:59:00,49.9,23.4,29.73,North,2,5.8,8.7,35,0.00,,SCT,0.20,VWS V14.01,2013-03-06 17:59:00,
2013-03-06 13:00:00,50.3,23.0,29.73,NE,53,4.0,6.9,34,0.00,,SCT,0.20,VWS V14.01,2013-03-06 18:00:00,
2013-03-06 13:01:00,50.4,23.1,29.73,North,2,4.0,4.9,34,0.00,,SCT,0.20,VWS V14.01,2013-03-06 18:01:00,
2013-03-06 13:02:00,50.3,23.0,29.73,West,266,3.1,6.7,34,0.00,,SCT,0.20,VWS V14.01,2013-03-06 18:02:00,
2013-03-06 13:03:00,50.1,22.8,29.73,WNW,303,0.0,0.0,34,0.00,,SCT,0.20,VWS V14.01,2013-03-06 18:03:00,
2013-03-06 13:04:00,50.1,22.8,29.73,East,82,4.0,4.5,34,0.00,,SCT,0.20,VWS V14.01,2013-03-06 18:04:00,
2013-03-06 13:05:00,49.9,22.7,29.73,ESE,115,3.1,5.8,34,0.00,,SCT,0.20,VWS V14.01,2013-03-06 18:05:00,
2013-03-06 13:06:00,49.7,22.5,29.73,East,86,5.4,5.4,34,0.00,,SCT,0.20,VWS V14.01,2013-03-06 18:06:00,
2013-03-06 13:07:00,49.5,22.4,29.73,ESE,114,2.7,5.4,34,0.00,,SCT,0.20,VWS V14.01,2013-03-06 18:07:00,
2013-03-06 13:08:00,49.2,22.0,29.73,NW,312,4.0,6.3,34,0.00,,SCT,0.20,VWS V14.01,2013-03-06 18:08:00,
2013-03-06 13:09:00,49.2,22.0,29.73,NNW,341,5.4,6.3,34,0.00,,SCT,0.20,VWS V14.01,2013-03-06 18:09:00,
2013-03-06 13:10:00,49.2,22.0,29.73,West,276,5.8,6.7,34,0.00,,SCT,0.20,VWS V14.01,2013-03-06 18:10:00,
2013-03-06 13:11:00,49.0,21.9,29.73,WNW,302,5.8,5.8,34,0.00,,SCT,0.20,VWS V14.01,2013-03-06 18:11:00,
2013-03-06 13:12:00,49.0,21.9,29.76,ENE,57,6.3,7.8,34,0.00,,SCT,0.20,VWS V14.01,2013-03-06 18:12:00,
2013-03-06 13:13:00,48.8,21.7,29.76,ENE,75,7.4,7.4,34,0.00,,SCT,0.20,VWS V14.01,2013-03-06 18:13:00,
2013-03-06 13:14:00,48.6,21.5,29.76,NNE,16,4.9,12.5,34,0.00,,SCT,0.20,VWS V14.01,2013-03-06 18:14:00,
2013-03-06 13:15:00,48.5,21.4,29.76,WNW,297,3.1,7.4,34,0.00,,SCT,0.20,VWS V14.01,2013-03-06 18:15:00,
2013-03-06 13:16:00,48.3,21.2,29.76,WSW,238,2.7,4.9,34,0.00,,SCT,0.20,VWS V14.01,2013-03-06 18:16:00,
2013-03-06 13:17:00,48.1,21.1,29.76,SW,218,3.6,6.3,34,0.00,,SCT,0.20,VWS V14.01,2013-03-06 18:17:00,
2013-03-06 13:18:00,47.9,20.9,29.76,NE,34,0.0,4.9,34,0.00,,SCT,0.20,VWS V14.01,2013-03-06 18:18:00,
2013-03-06 13:19:00,48.1,21.1,29.76,North,351,11.0,11.0,34,0.00,,SCT,0.20,VWS V14.01,2013-03-06 18:19:00,
2013-03-06 13:20:00,47.9,20.9,29.76,NNW,327,2.7,11.0,34,0.00,,SCT,0.20,VWS V14.01,2013-03-06 18:20:00,
2013-03-06 13:21:00,47.9,20.9,29.76,West,271,0.0,5.4,34,0.00,,SCT,0.20,VWS V14.01,2013-03-06 18:21:00,
2013-03-06 13:22:00,47.9,20.9,29.76,WNW,286,2.7,4.9,34,0.00,,SCT,0.20,VWS V14.01,2013-03-06 18:22:00,
2013-03-06 13:23:00,48.3,21.2,29.76,South,188,5.8,5.8,34,0.00,,SCT,0.20,VWS V14.01,2013-03-06 18:23:00,
2013-03-06 13:24:00,48.3,21.2,29.76,SW,220,3.6,6.9,34,0.00,,SCT,0.20,VWS V14.01,2013-03-06 18:24:00,
2013-03-06 13:25:00,48.3,21.2,29.76,NNW,332,3.6,4.5,34,0.00,,SCT,0.20,VWS V14.01,2013-03-06 18:25:00,
2013-03-06 13:26:00,48.5,21.4,29.76,NE,49,3.6,4.9,34,0.00,,SCT,0.20,VWS V14.01,2013-03-06 18:26:00,
2013-03-06 13:27:00,48.5,21.4,29.73,West,274,6.9,8.3,34,0.00,,SCT,0.20,VWS V14.01,2013-03-06 18:27:00,
2013-03-06 13:28:00,48.5,21.4,29.73,WSW,240,6.9,8.7,34,0.00,,SCT,0.20,VWS V14.01,2013-03-06 18:28:00,
2013-03-06 13:29:00,48.5,21.4,29.73,West,259,4.5,8.7,34,0.00,,SCT,0.20,VWS V14.01,2013-03-06 18:29:00,
2013-03-06 13:30:00,48.3,21.2,29.73,SW,230,4.5,8.3,34,0.00,,SCT,0.20,VWS V14.01,2013-03-06 18:30:00,
2013-03-06 13:31:00,47.9,20.9,29.73,SW,232,6.7,8.7,34,0.00,,SCT,0.20,VWS V14.01,2013-03-06 18:31:00,
2013-03-06 13:32:00,47.7,20.8,29.73,WSW,243,3.1,6.9,34,0.00,,SCT,0.20,VWS V14.01,2013-03-06 18:32:00,
2013-03-06 13:33:00,47.4,20.4,29.73,West,274,3.1,4.0,34,0.00,,SCT,0.20,VWS V14.01,2013-03-06 18:33:00,
2013-03-06 13:34:00,47.4,21.1,29.73,WSW,238,3.1,5.4,35,0.00,,SCT,0.20,VWS V14.01,2013-03-06 18:34:00,
2013-03-06 13:35:00,47.4,21.1,29.73,SE,128,0.0,4.0,35,0.00,,SCT,0.20,VWS V14.01,2013-03-06 18:35:00,
2013-03-06 13:36:00,47.6,21.3,29.73,SSW,202,4.9,4.9,35,0.00,,SCT,0.20,VWS V14.01,2013-03-06 18:36:00,
2013-03-06 13:37:00,47.7,21.4,29.73,ENE,57,2.7,5.8,35,0.00,,SCT,0.20,VWS V14.01,2013-03-06 18:37:00,
2013-03-06 13:38:00,47.9,21.6,29.73,NE,56,6.9,6.9,35,0.00,,SCT,0.20,VWS V14.01,2013-03-06 18:38:00,
2013-03-06 13:39:00,47.9,21.6,29.73,NNE,25,5.8,6.9,35,0.00,,SCT,0.20,VWS V14.01,2013-03-06 18:39:00,
2013-03-06 13:40:00,47.9,20.9,29.73,WNW,290,4.5,6.9,34,0.00,,SCT,0.20,VWS V14.01,2013-03-06 18:40:00,
2013-03-06 13:41:00,47.9,21.6,29.73,WSW,254,4.9,5.4,35,0.00,,SCT,0.20,VWS V14.01,2013-03-06 18:41:00,
2013-03-06 13:42:00,48.1,21.8,29.73,NW,308,5.8,11.2,35,0.00,,SCT,0.20,VWS V14.01,2013-03-06 18:42:00,
2013-03-06 13:43:00,48.3,21.2,29.73,NW,307,4.0,4.5,34,0.00,,SCT,0.20,VWS V14.01,2013-03-06 18:43:00,
2013-03-06 13:44:00,48.5,21.4,29.73,NNW,340,3.1,7.4,34,0.00,,SCT,0.20,VWS V14.01,2013-03-06 18:44:00,
2013-03-06 13:45:00,48.5,21.4,29.73,South,188,4.0,6.7,34,0.00,,SCT,0.20,VWS V14.01,2013-03-06 18:45:00,
2013-03-06 13:46:00,48.6,21.5,29.73,South,188,4.0,4.0,34,0.00,,SCT,0.20,VWS V14.01,2013-03-06 18:46:00,
2013-03-06 13:47:00,48.8,21.7,29.73,South,188,4.0,4.0,34,0.00,,SCT,0.20,VWS V14.01,2013-03-06 18:47:00,
2013-03-06 13:48:00,49.0,21.9,29.73,South,188,4.0,4.0,34,0.00,,SCT,0.20,VWS V14.01,2013-03-06 18:48:00,
2013-03-06 13:49:00,49.0,21.9,29.73,South,188,4.0,4.0,34,0.00,,SCT,0.20,VWS V14.01,2013-03-06 18:49:00,
2013-03-06 13:50:00,49.2,22.0,29.73,South,188,4.0,4.0,34,0.00,,SCT,0.20,VWS V14.01,2013-03-06 18:50:00,
2013-03-06 13:51:00,49.2,22.0,29.73,South,188,4.0,4.0,34,0.00,,SCT,0.20,VWS V14.01,2013-03-06 18:51:00,
2013-03-06 13:52:00,49.2,22.0,29.73,South,188,4.0,4.0,34,0.00,,SCT,0.20,VWS V14.01,2013-03-06 18:52:00,
2013-03-06 13:53:00,49.5,22.4,29.73,South,188,4.0,4.0,34,0.00,,SCT,0.20,VWS V14.01,2013-03-06 18:53:00,
2013-03-06 13:54:00,49.7,22.5,29.73,South,188,4.0,4.0,34,0.00,,SCT,0.20,VWS V14.01,2013-03-06 18:54:00,
2013-03-06 13:55:00,49.9,22.7,29.73,South,188,4.0,4.0,34,0.00,,SCT,0.20,VWS V14.01,2013-03-06 18:55:00,
2013-03-06 13:56:00,50.1,22.8,29.73,South,188,4.0,4.0,34,0.00,,SCT,0.20,VWS V14.01,2013-03-06 18:56:00,
2013-03-06 13:57:00,50.3,23.0,29.73,South,188,4.0,4.0,34,0.00,,SCT,0.20,VWS V14.01,2013-03-06 18:57:00,
2013-03-06 13:58:00,50.4,23.1,29.73,South,188,4.0,4.0,34,0.00,,SCT,0.20,VWS V14.01,2013-03-06 18:58:00,
2013-03-06 13:59:00,50.4,23.1,29.73,South,188,4.0,4.0,34,0.00,,SCT,0.20,VWS V14.01,2013-03-06 18:59:00,
2013-03-06 14:00:00,50.6,23.3,29.76,South,188,4.0,4.0,34,0.00,,SCT,0.20,VWS V14.01,2013-03-06 19:00:00,
2013-03-06 14:01:00,50.6,23.3,29.76,South,188,4.0,4.0,34,0.00,,SCT,0.20,VWS V14.01,2013-03-06 19:01:00,
2013-03-06 14:02:00,50.4,23.1,29.76,South,188,4.0,4.0,34,0.00,,SCT,0.20,VWS V14.01,2013-03-06 19:02:00,
2013-03-06 14:03:00,50.4,23.1,29.76,South,188,4.0,4.0,34,0.00,,SCT,0.20,VWS V14.01,2013-03-06 19:03:00,
2013-03-06 14:04:00,50.4,23.1,29.76,South,188,4.0,4.0,34,0.00,,SCT,0.20,VWS V14.01,2013-03-06 19:04:00,
2013-03-06 14:05:00,50.4,23.1,29.76,South,188,4.0,4.0,34,0.00,,SCT,0.20,VWS V14.01,2013-03-06 19:05:00,
2013-03-06 14:06:00,50.4,23.1,29.76,South,188,4.0,4.0,34,0.00,,SCT,0.20,VWS V14.01,2013-03-06 19:06:00,
2013-03-06 14:07:00,50.4,23.1,29.76,South,188,4.0,4.0,34,0.00,,SCT,0.20,VWS V14.01,2013-03-06 19:07:00,
2013-03-06 14:08:00,50.4,23.1,29.76,West,268,4.0,4.9,34,0.00,,SCT,0.20,VWS V14.01,2013-03-06 19:08:00,
2013-03-06 14:09:00,50.6,23.3,29.76,WNW,290,5.8,5.8,34,0.00,,SCT,0.20,VWS V14.01,2013-03-06 19:09:00,
2013-03-06 14:10:00,50.6,23.3,29.76,NW,310,3.6,7.4,34,0.00,,SCT,0.20,VWS V14.01,2013-03-06 19:10:00,
2013-03-06 14:11:00,50.6,23.3,29.76,WNW,296,3.6,4.0,34,0.00,,SCT,0.20,VWS V14.01,2013-03-06 19:11:00,
2013-03-06 14:12:00,50.6,23.3,29.76,WNW,303,2.7,5.4,34,0.00,,SCT,0.20,VWS V14.01,2013-03-06 19:12:00,
2013-03-06 14:13:00,50.6,23.3,29.76,WNW,292,8.7,8.7,34,0.00,,SCT,0.20,VWS V14.01,2013-03-06 19:13:00,
2013-03-06 14:14:00,50.6,23.3,29.76,West,279,6.9,8.7,34,0.00,,SCT,0.20,VWS V14.01,2013-03-06 19:14:00,
2013-03-06 14:15:00,50.6,23.3,29.76,NNW,340,4.9,7.4,34,0.00,,SCT,0.20,VWS V14.01,2013-03-06 19:15:00,
2013-03-06 14:16:00,50.6,23.3,29.76,North,351,5.4,6.7,34,0.00,,SCT,0.20,VWS V14.01,2013-03-06 19:16:00,
2013-03-06 14:17:00,50.3,23.0,29.76,NW,317,6.3,6.7,34,0.00,,SCT,0.20,VWS V14.01,2013-03-06 19:17:00,
2013-03-06 14:18:00,50.3,23.0,29.76,West,270,4.5,4.5,34,0.00,,SCT,0.20,VWS V14.01,2013-03-06 19:18:00,
2013-03-06 14:19:00,50.4,23.1,29.76,West,259,0.0,5.4,34,0.00,,SCT,0.20,VWS V14.01,2013-03-06 19:19:00,
2013-03-06 14:20:00,50.4,23.1,29.76,North,0,6.7,7.4,34,0.00,,SCT,0.20,VWS V14.01,2013-03-06 19:20:00,
2013-03-06 14:21:00,50.3,22.3,29.76,ENE,63,9.2,13.4,33,0.00,,SCT,0.20,VWS V14.01,2013-03-06 19:21:00,
2013-03-06 14:22:00,49.7,22.5,29.76,NNE,18,5.8,9.2,34,0.00,,SCT,0.20,VWS V14.01,2013-03-06 19:22:00,
2013-03-06 14:23:00,49.5,22.4,29.76,WNW,284,5.4,5.4,34,0.00,,SCT,0.20,VWS V14.01,2013-03-06 19:23:00,
2013-03-06 14:24:00,49.4,22.2,29.76,WNW,286,0.0,6.3,34,0.00,,SCT,0.20,VWS V14.01,2013-03-06 19:24:00,
2013-03-06 14:25:00,49.4,22.2,29.76,South,181,4.0,4.5,34,0.00,,SCT,0.20,VWS V14.01,2013-03-06 19:25:00,
2013-03-06 14:26:00,49.7,22.5,29.76,ESE,107,4.9,7.8,34,0.00,,SCT,0.20,VWS V14.01,2013-03-06 19:26:00,
2013-03-06 14:27:00,49.9,22.7,29.76,ESE,117,0.0,4.9,34,0.00,,SCT,0.20,VWS V14.01,2013-03-06 19:27:00,
2013-03-06 14:28:00,50.1,22.8,29.76,NNW,338,6.3,6.3,34,0.00,,SCT,0.20,VWS V14.01,2013-03-06 19:28:00,
2013-03-06 14:29:00,49.9,22.7,29.76,NNW,342,6.3,7.8,34,0.00,,SCT,0.20,VWS V14.01,2013-03-06 19:29:00,
2013-03-06 14:30:00,49.7,22.5,29.76,ENE,78,5.8,6.7,34,0.00,,SCT,0.20,VWS V14.01,2013-03-06 19:30:00,
2013-03-06 14:31:00,49.4,22.2,29.76,ESE,114,5.8,5.8,34,0.00,,SCT,0.20,VWS V14.01,2013-03-06 19:31:00,
2013-03-06 14:32:00,49.0,21.9,29.76,NE,45,3.1,6.3,34,0.00,,SCT,0.20,VWS V14.01,2013-03-06 19:32:00,
2013-03-06 14:33:00,48.8,21.7,29.76,ENE,75,6.7,6.7,34,0.00,,SCT,0.20,VWS V14.01,2013-03-06 19:33:00,
2013-03-06 14:34:00,48.8,21.7,29.76,NNE,14,6.9,6.9,34,0.00,,SCT,0.20,VWS V14.01,2013-03-06 19:34:00,
2013-03-06 14:35:00,48.8,21.7,29.76,WNW,289,5.8,7.4,34,0.00,,SCT,0.20,VWS V14.01,2013-03-06 19:35:00,
2013-03-06 14:36:00,48.8,21.7,29.76,WNW,292,4.9,6.9,34,0.00,,SCT,0.20,VWS V14.01,2013-03-06 19:36:00,
2013-03-06 14:37:00,48.8,21.7,29.76,South,180,4.0,4.9,34,0.00,,SCT,0.20,VWS V14.01,2013-03-06 19:37:00,
2013-03-06 14:38:00,48.8,21.7,29.76,NNW,339,4.9,4.9,34,0.00,,SCT,0.20,VWS V14.01,2013-03-06 19:38:00,
2013-03-06 14:39:00,48.8,21.7,29.76,WNW,300,4.0,9.2,34,0.00,,SCT,0.20,VWS V14.01,2013-03-06 19:39:00,
2013-03-06 14:40:00,48.8,21.7,29.76,NNW,347,3.6,6.7,34,0.00,,SCT,0.20,VWS V14.01,2013-03-06 19:40:00,
2013-03-06 14:43:00,48.8,21.7,29.76,WSW,245,4.0,4.9,34,0.00,,SCT,0.20,VWS V14.01,2013-03-06 19:43:00,
2013-03-06 14:50:00,49.0,21.9,29.76,NNE,16,3.6,3.6,34,0.00,,SCT,0.20,VWS V14.01,2013-03-06 19:50:00,
2013-03-06 14:55:00,49.2,22.0,29.76,North,356,4.0,6.3,34,0.00,,SCT,0.20,VWS V14.01,2013-03-06 19:55:00,
2013-03-06 15:00:00,48.6,21.5,29.79,North,356,4.0,4.0,34,0.00,,SCT,0.20,VWS V14.01,2013-03-06 20:00:00,
2013-03-06 15:05:00,48.6,21.5,29.79,North,356,4.0,4.0,34,0.00,,SCT,0.20,VWS V14.01,2013-03-06 20:05:00,
2013-03-06 15:10:00,47.6,21.3,29.79,North,356,4.0,4.0,35,0.00,,SCT,0.20,VWS V14.01,2013-03-06 20:10:00,
2013-03-06 15:15:00,47.6,20.6,29.79,North,356,4.0,4.0,34,0.00,,SCT,0.20,VWS V14.01,2013-03-06 20:15:00,
2013-03-06 15:20:00,47.6,20.6,29.79,North,356,4.0,4.0,34,0.00,,SCT,0.20,VWS V14.01,2013-03-06 20:20:00,
2013-03-06 15:25:00,47.6,21.3,29.79,North,356,4.0,4.0,35,0.00,,SCT,0.20,VWS V14.01,2013-03-06 20:25:00,
2013-03-06 15:30:00,47.7,21.4,29.82,North,356,4.0,4.0,35,0.00,,SCT,0.20,VWS V14.01,2013-03-06 20:30:00,
2013-03-06 15:35:00,48.1,21.1,29.82,North,356,4.0,4.0,34,0.00,,SCT,0.20,VWS V14.01,2013-03-06 20:35:00,
2013-03-06 15:40:00,48.3,21.9,29.82,North,356,4.0,4.0,35,0.00,,SCT,0.20,VWS V14.01,2013-03-06 20:40:00,
2013-03-06 15:45:00,48.3,21.9,29.82,North,356,4.0,4.0,35,0.00,,SCT,0.20,VWS V14.01,2013-03-06 20:45:00,
2013-03-06 15:50:00,48.3,21.9,29.82,North,356,4.0,4.0,35,0.00,,SCT,0.20,VWS V14.01,2013-03-06 20:50:00,
2013-03-06 15:55:00,48.3,21.9,29.82,North,356,4.0,4.0,35,0.00,,SCT,0.20,VWS V14.01,2013-03-06 20:55:00,
2013-03-06 16:00:00,48.3,21.9,29.85,North,356,4.0,4.0,35,0.00,,SCT,0.20,VWS V14.01,2013-03-06 21:00:00,
2013-03-06 16:05:00,48.3,21.9,29.85,North,356,4.0,4.0,35,0.00,,SCT,0.20,VWS V14.01,2013-03-06 21:05:00,
2013-03-06 16:10:00,45.2,19.9,29.85,North,356,4.0,4.0,36,0.00,,SCT,0.20,VWS V14.01,2013-03-06 21:10:00,
2013-03-06 16:15:00,45.2,19.9,29.85,North,356,4.0,4.0,36,0.00,,SCT,0.20,VWS V14.01,2013-03-06 21:15:00,
2013-03-06 16:20:00,45.2,19.9,29.85,North,356,4.0,4.0,36,0.00,,SCT,0.20,VWS V14.01,2013-03-06 21:20:00,
2013-03-06 16:25:00,45.2,19.9,29.85,North,356,4.0,4.0,36,0.00,,SCT,0.20,VWS V14.01,2013-03-06 21:25:00,
2013-03-06 16:30:00,45.2,19.9,29.85,North,356,4.0,4.0,36,0.00,,SCT,0.20,VWS V14.01,2013-03-06 21:30:00,
2013-03-06 16:35:00,45.2,19.9,29.85,North,356,4.0,4.0,36,0.00,,SCT,0.20,VWS V14.01,2013-03-06 21:35:00,
2013-03-06 16:40:00,45.2,19.9,29.85,North,356,4.0,4.0,36,0.00,,SCT,0.20,VWS V14.01,2013-03-06 21:40:00,
2013-03-06 16:45:00,45.2,19.9,29.88,North,356,4.0,4.0,36,0.00,,SCT,0.20,VWS V14.01,2013-03-06 21:45:00,
2013-03-06 16:50:00,45.2,19.9,29.88,North,356,4.0,4.0,36,0.00,,SCT,0.20,VWS V14.01,2013-03-06 21:50:00,
2013-03-06 16:55:00,45.2,20.5,29.88,North,356,4.0,4.0,37,0.00,,SCT,0.20,VWS V14.01,2013-03-06 21:55:00,
2013-03-06 17:00:00,45.2,20.5,29.88,North,356,4.0,4.0,37,0.00,,SCT,0.20,VWS V14.01,2013-03-06 22:00:00,
2013-03-06 17:05:00,44.0,19.4,29.88,North,356,4.0,4.0,37,0.00,,SCT,0.20,VWS V14.01,2013-03-06 22:05:00,
2013-03-06 17:10:00,43.4,18.9,29.88,North,356,4.0,4.0,37,0.00,,SCT,0.20,VWS V14.01,2013-03-06 22:10:00,
2013-03-06 17:15:00,43.1,18.6,29.91,North,356,4.0,4.0,37,0.00,,SCT,0.20,VWS V14.01,2013-03-06 22:15:00,
2013-03-06 17:20:00,42.5,18.7,29.91,North,356,4.0,4.0,38,0.00,,SCT,0.20,VWS V14.01,2013-03-06 22:20:00,
2013-03-06 17:25:00,41.4,17.8,29.91,North,356,4.0,4.0,38,0.00,,SCT,0.20,VWS V14.01,2013-03-06 22:25:00,
2013-03-06 17:30:00,40.9,17.9,29.91,North,356,4.0,4.0,39,0.00,,SCT,0.20,VWS V14.01,2013-03-06 22:30:00,
2013-03-06 17:35:00,40.2,17.8,29.91,WNW,302,5.4,6.3,40,0.00,,SCT,0.20,VWS V14.01,2013-03-06 22:35:00,
2013-03-06 17:40:00,39.6,17.3,29.91,NW,311,3.6,4.5,40,0.00,,SCT,0.20,VWS V14.01,2013-03-06 22:40:00,
2013-03-06 17:45:00,39.3,18.1,29.91,SW,228,0.0,2.7,42,0.00,,SCT,0.20,VWS V14.01,2013-03-06 22:45:00,
2013-03-06 17:50:00,39.1,18.5,29.91,NNW,337,4.5,4.5,43,0.00,,SCT,0.20,VWS V14.01,2013-03-06 22:50:00,
2013-03-06 17:55:00,38.9,18.9,29.91,WNW,302,2.7,3.1,44,0.00,,SCT,0.20,VWS V14.01,2013-03-06 22:55:00,
2013-03-06 18:00:00,38.7,18.7,29.91,West,264,3.1,3.1,44,0.00,,SCT,0.20,VWS V14.01,2013-03-06 23:00:00,
2013-03-06 18:05:00,38.4,18.4,29.91,NNW,341,3.1,4.9,44,0.00,,SCT,0.20,VWS V14.01,2013-03-06 23:05:00,
2013-03-06 18:10:00,38.0,18.6,29.91,SSW,205,5.4,5.4,45,0.00,,SCT,0.20,VWS V14.01,2013-03-06 23:10:00,
2013-03-06 18:15:00,37.7,18.8,29.91,WSW,256,3.6,3.6,46,0.00,,SCT,0.20,VWS V14.01,2013-03-06 23:15:00,
2013-03-06 18:20:00,37.5,18.6,29.91,NNW,340,6.3,9.2,46,0.00,,SCT,0.20,VWS V14.01,2013-03-06 23:20:00,
2013-03-06 18:25:00,37.3,18.4,29.91,West,270,0.0,4.5,46,0.00,,SCT,0.20,VWS V14.01,2013-03-06 23:25:00,
2013-03-06 18:30:00,37.1,18.8,29.91,SW,220,0.0,3.6,47,0.00,,SCT,0.20,VWS V14.01,2013-03-06 23:30:00,
2013-03-06 18:35:00,37.1,18.8,29.91,West,267,2.7,2.7,47,0.00,,SCT,0.20,VWS V14.01,2013-03-06 23:35:00,
2013-03-06 18:40:00,37.1,18.8,29.91,SW,226,4.5,4.9,47,0.00,,SCT,0.20,VWS V14.01,2013-03-06 23:40:00,
2013-03-06 18:45:00,37.1,18.8,29.91,West,275,3.6,4.0,47,0.00,,SCT,0.20,VWS V14.01,2013-03-06 23:45:00,
2013-03-06 18:50:00,37.1,18.8,29.91,SW,224,0.0,2.7,47,0.00,,SCT,0.20,VWS V14.01,2013-03-06 23:50:00,
2013-03-06 18:55:00,37.1,18.8,29.91,SSE,150,3.1,3.1,47,0.00,,SCT,0.20,VWS V14.01,2013-03-06 23:55:00,
2013-03-06 19:00:00,37.1,18.8,29.91,SSW,205,3.6,3.6,47,0.00,,SCT,0.20,VWS V14.01,2013-03-07 00:00:00,
2013-03-06 19:05:00,37.1,19.3,29.91,SSW,198,0.0,3.6,48,0.00,,SCT,0.20,VWS V14.01,2013-03-07 00:05:00,
2013-03-06 19:10:00,37.1,19.3,29.91,West,279,4.0,4.9,48,0.00,,SCT,0.20,VWS V14.01,2013-03-07 00:10:00,
2013-03-06 19:15:00,37.1,19.3,29.91,WNW,284,2.7,4.0,48,0.00,,SCT,0.20,VWS V14.01,2013-03-07 00:15:00,
2013-03-06 19:20:00,37.1,19.3,29.91,NW,305,0.0,0.0,48,0.00,,SCT,0.20,VWS V14.01,2013-03-07 00:20:00,
2013-03-06 19:25:00,37.1,19.7,29.91,WNW,286,6.7,6.7,49,0.00,,SCT,0.20,VWS V14.01,2013-03-07 00:25:00,
2013-03-06 19:30:00,37.1,19.7,29.91,NW,304,0.0,0.0,49,0.00,,SCT,0.20,VWS V14.01,2013-03-07 00:30:00,
2013-03-06 19:35:00,37.1,19.7,29.91,WSW,239,0.0,0.0,49,0.00,,SCT,0.20,VWS V14.01,2013-03-07 00:35:00,
2013-03-06 19:40:00,37.1,19.7,29.91,WSW,249,2.7,2.7,49,0.00,,SCT,0.20,VWS V14.01,2013-03-07 00:40:00,
2013-03-06 19:45:00,37.1,19.7,29.91,SSW,208,2.7,2.7,49,0.00,,SCT,0.20,VWS V14.01,2013-03-07 00:45:00,
2013-03-06 19:50:00,37.1,19.7,29.91,West,281,0.0,0.0,49,0.00,,SCT,0.20,VWS V14.01,2013-03-07 00:50:00,
2013-03-06 19:55:00,37.1,19.7,29.91,SW,214,4.5,4.5,49,0.00,,SCT,0.20,VWS V14.01,2013-03-07 00:55:00,
2013-03-06 20:00:00,37.1,20.2,29.91,South,169,3.6,3.6,50,0.00,,SCT,0.20,VWS V14.01,2013-03-07 01:00:00,
2013-03-06 20:05:00,37.1,20.2,29.91,SSE,168,2.7,2.7,50,0.00,,SCT,0.20,VWS V14.01,2013-03-07 01:05:00,
2013-03-06 20:10:00,37.1,20.7,29.91,SSW,204,3.1,3.1,51,0.00,,SCT,0.20,VWS V14.01,2013-03-07 01:10:00,
2013-03-06 20:15:00,37.1,20.7,29.91,WSW,237,0.0,3.1,51,0.00,,SCT,0.20,VWS V14.01,2013-03-07 01:15:00,
2013-03-06 20:20:00,37.1,21.1,29.91,South,180,0.0,3.1,52,0.00,,SCT,0.20,VWS V14.01,2013-03-07 01:20:00,
2013-03-06 20:25:00,37.1,21.1,29.91,South,180,0.0,0.0,52,0.00,,SCT,0.20,VWS V14.01,2013-03-07 01:25:00,
2013-03-06 20:30:00,37.1,21.1,29.91,South,180,0.0,0.0,52,0.00,,SCT,0.20,VWS V14.01,2013-03-07 01:30:00,
2013-03-06 20:35:00,37.1,21.1,29.91,South,180,0.0,0.0,52,0.00,,SCT,0.20,VWS V14.01,2013-03-07 01:35:00,
2013-03-06 20:40:00,37.1,21.6,29.91,East,92,0.0,3.1,53,0.00,,SCT,0.20,VWS V14.01,2013-03-07 01:40:00,
2013-03-06 20:45:00,37.1,21.6,29.91,WNW,282,2.7,3.1,53,0.00,,SCT,0.20,VWS V14.01,2013-03-07 01:45:00,
2013-03-06 20:50:00,37.1,22.0,29.91,WSW,256,0.0,0.0,54,0.00,,SCT,0.20,VWS V14.01,2013-03-07 01:50:00,
2013-03-06 20:55:00,32.8,17.6,30.00,West,271,4.0,5.8,53,0.00,,SCT,0.20,VWS V14.01,2013-03-07 01:55:00,
2013-03-06 21:00:00,32.8,18.0,30.00,WSW,254,0.0,0.0,54,0.00,,SCT,0.20,VWS V14.01,2013-03-07 02:00:00,
2013-03-06 21:05:00,32.8,18.0,30.00,West,267,3.6,4.0,54,0.00,,SCT,0.20,VWS V14.01,2013-03-07 02:05:00,
2013-03-06 21:10:00,32.8,18.4,30.00,WSW,247,4.0,4.0,55,0.00,,SCT,0.20,VWS V14.01,2013-03-07 02:10:00,
2013-03-06 21:15:00,32.6,18.7,30.03,WSW,243,0.0,0.0,56,0.00,,SCT,0.20,VWS V14.01,2013-03-07 02:15:00,
2013-03-06 21:20:00,32.6,18.3,30.03,WSW,245,3.1,3.6,55,0.00,,SCT,0.20,VWS V14.01,2013-03-07 02:20:00,
2013-03-06 21:25:00,32.4,18.5,30.03,WSW,256,3.6,3.6,56,0.00,,SCT,0.20,VWS V14.01,2013-03-07 02:25:00,
2013-03-06 21:30:00,32.3,18.3,30.03,WSW,256,2.7,2.7,56,0.00,,SCT,0.20,VWS V14.01,2013-03-07 02:30:00,
2013-03-06 21:35:00,32.3,18.3,30.03,WSW,253,3.6,3.6,56,0.00,,SCT,0.20,VWS V14.01,2013-03-07 02:35:00,
2013-03-06 21:40:00,32.3,18.8,30.03,WNW,282,0.0,0.0,57,0.00,,SCT,0.20,VWS V14.01,2013-03-07 02:40:00,
2013-03-06 21:45:00,32.4,18.9,30.03,West,263,3.6,3.6,57,0.00,,SCT,0.20,VWS V14.01,2013-03-07 02:45:00,
2013-03-06 21:50:00,33.0,19.4,30.03,West,268,3.6,4.5,57,0.00,,SCT,0.20,VWS V14.01,2013-03-07 02:50:00,
2013-03-06 21:55:00,33.2,19.6,30.03,West,279,4.0,4.0,57,0.00,,SCT,0.20,VWS V14.01,2013-03-07 02:55:00,
2013-03-06 22:00:00,33.3,19.8,30.03,WNW,282,0.0,0.0,57,0.00,,SCT,0.20,VWS V14.01,2013-03-07 03:00:00,
2013-03-06 22:05:00,33.3,19.8,30.03,WSW,257,0.0,2.7,57,0.00,,SCT,0.20,VWS V14.01,2013-03-07 03:05:00,
2013-03-06 22:10:00,33.5,19.9,30.03,WNW,289,0.0,0.0,57,0.00,,SCT,0.20,VWS V14.01,2013-03-07 03:10:00,
2013-03-06 22:15:00,33.3,19.8,30.03,SW,232,0.0,4.0,57,0.00,,SCT,0.20,VWS V14.01,2013-03-07 03:15:00,
2013-03-06 22:20:00,33.3,19.8,30.03,West,261,3.1,4.5,57,0.00,,SCT,0.20,VWS V14.01,2013-03-07 03:20:00,
2013-03-06 22:25:00,33.3,19.8,30.03,WSW,250,4.5,4.9,57,0.00,,SCT,0.20,VWS V14.01,2013-03-07 03:25:00,
2013-03-06 22:30:00,33.3,19.8,30.03,West,262,0.0,0.0,57,0.00,,SCT,0.20,VWS V14.01,2013-03-07 03:30:00,
2013-03-06 22:35:00,33.2,19.6,30.03,South,187,0.0,0.0,57,0.00,,SCT,0.20,VWS V14.01,2013-03-07 03:35:00,
2013-03-06 22:40:00,32.8,19.3,30.03,WSW,256,0.0,0.0,57,0.00,,SCT,0.20,VWS V14.01,2013-03-07 03:40:00,
2013-03-06 22:45:00,33.0,19.4,30.06,West,270,0.0,0.0,57,0.00,,SCT,0.20,VWS V14.01,2013-03-07 03:45:00,
2013-03-06 22:50:00,33.2,19.6,30.06,West,270,0.0,0.0,57,0.00,,SCT,0.20,VWS V14.01,2013-03-07 03:50:00,
2013-03-06 22:55:00,33.5,20.3,30.06,SW,236,0.0,0.0,58,0.00,,SCT,0.20,VWS V14.01,2013-03-07 03:55:00,
2013-03-06 23:00:00,34.1,20.4,30.06,ESE,102,4.0,4.0,57,0.00,,SCT,0.20,VWS V14.01,2013-03-07 04:00:00,
2013-03-06 23:05:00,34.6,21.0,30.06,ESE,102,4.0,4.0,57,0.00,,SCT,0.20,VWS V14.01,2013-03-07 04:05:00,
2013-03-06 23:10:00,35.0,21.3,30.06,ESE,102,4.0,4.0,57,0.00,,SCT,0.20,VWS V14.01,2013-03-07 04:10:00,
2013-03-06 23:15:00,35.3,21.6,30.06,ESE,102,4.0,4.0,57,0.00,,SCT,0.20,VWS V14.01,2013-03-07 04:15:00,
2013-03-06 23:20:00,35.5,21.4,30.06,ESE,102,4.0,4.0,56,0.00,,SCT,0.20,VWS V14.01,2013-03-07 04:20:00,
2013-03-06 23:25:00,35.7,21.5,30.06,ESE,102,4.0,4.0,56,0.00,,SCT,0.20,VWS V14.01,2013-03-07 04:25:00,
2013-03-06 23:30:00,35.9,21.7,30.06,ESE,102,4.0,4.0,56,0.00,,SCT,0.20,VWS V14.01,2013-03-07 04:30:00,
2013-03-06 23:35:00,36.0,21.5,30.06,ESE,102,4.0,4.0,55,0.00,,SCT,0.20,VWS V14.01,2013-03-07 04:35:00,
2013-03-06 23:40:00,36.0,21.5,30.06,WSW,251,0.0,0.0,55,0.00,,SCT,0.20,VWS V14.01,2013-03-07 04:40:00,
2013-03-06 23:45:00,36.2,21.6,30.06,West,271,2.7,4.0,55,0.00,,SCT,0.20,VWS V14.01,2013-03-07 04:45:00,
2013-03-06 23:50:00,36.2,21.2,30.06,WSW,252,2.7,2.7,54,0.00,,SCT,0.20,VWS V14.01,2013-03-07 04:50:00,
2013-03-06 23:55:00,36.2,21.2,30.06,WSW,248,0.0,0.0,54,0.00,,SCT,0.20,VWS V14.01,2013-03-07 04:55:00,